Flag for U.S.A. Weather past 2 weeks in Costa Mesa, California, U.S.A.

Now
81 °F

Scattered clouds.


Feels Like: 82 °F
Forecast: 69 / 83 °F
Wind: 6 mph from Southwest

Location: John Wayne Airport-Orange County Airport

Current Time: Jul 31, 2014 at 11:23:52 AM

Latest Report: Jul 31, 2014 at 10:53 AM


Visibility: 10 mi

Pressure: 29.93 "Hg

Humidity: 53%

Dew point: 62 °F

Location of Costa MesaLocation

Historic Weather in Costa Mesa — Graph

°F

Costa Mesa temperature yesterday

Maximum temperature yesterday: 85 °F (at 12:53 PM)
Minimum temperature yesterday: 70 °F (at 4:53 AM)
Average temperature yesterday: 77 °F

Past Weeks' High & Low Weather Summary

 TemperatureHumidityPressure
High91 °F (Jul 28, 12:53 PM)87% (Jul 26, 6:53 AM)30.06 "Hg (Jul 26, 6:53 AM)
Low68 °F (Jul 18, 5:53 AM)22% (Jul 28, 1:53 PM)29.72 "Hg (Jul 24, 5:53 PM)
Average75 °F63%29.96 "Hg
* Reported Jul 16 9:53 AM — Jul 31 9:53 AM, Costa Mesa, Weather by CustomWeather, © 2014

Note: Actual official high and low records may vary slightly from our data, if they occured in-between our weather recording intervals... More about our weather records

Advertising

Costa Mesa weather history for previous 24 hours

 ConditionsComfort  
Time TempWeatherWind HumidityBarometerVisibility
9:53 AM
Jul 31
78 °FScattered clouds.5 mph54%29.93 "Hg10 mi
8:53 AM75 °FScattered clouds.5 mph64%29.93 "Hg10 mi
7:53 AM73 °FScattered clouds.3 mph74%29.93 "Hg10 mi
6:53 AM71 °FPassing clouds.No wind78%29.92 "Hg8 mi
5:53 AM70 °FPassing clouds.3 mph81%29.91 "Hg9 mi
4:53 AM71 °FClear.5 mph78%29.91 "Hg10 mi
3:53 AM71 °FClear.3 mph76%29.90 "Hg10 mi
2:53 AM71 °FClear.6 mph73%29.90 "Hg10 mi
1:53 AM72 °FClear.5 mph78%29.92 "Hg10 mi
12:53 AM72 °FClear.6 mph76%29.93 "Hg10 mi
11:53 PM
Jul 30
73 °FClear.No wind74%29.93 "Hg10 mi
10:53 PM74 °FPassing clouds.No wind71%29.92 "Hg10 mi
9:53 PM74 °FPassing clouds.5 mph74%29.92 "Hg10 mi
8:53 PM75 °FPassing clouds.5 mph71%29.92 "Hg10 mi
7:53 PM75 °FScattered clouds.9 mph71%29.90 "Hg10 mi
6:53 PM79 °FScattered clouds.10 mph52%29.88 "Hg10 mi
5:53 PM83 °FScattered clouds.10 mph44%29.88 "Hg10 mi
4:53 PM83 °FBroken clouds.8 mph46%29.89 "Hg10 mi
3:53 PM85 °FBroken clouds.7 mph48%29.90 "Hg10 mi
2:53 PM84 °FBroken clouds.7 mph46%29.91 "Hg10 mi
1:53 PM83 °FBroken clouds.8 mph50%29.93 "Hg10 mi
12:53 PM85 °FBroken clouds.9 mph45%29.94 "Hg10 mi
11:53 AM84 °FBroken clouds.8 mph49%29.94 "Hg10 mi
Weather by CustomWeather, © 2014

See weather overviewHow to use our weather pages